Location: Bastogne Gables
(35.1554°N, 78.9900°W)
Time: 02:40:42
(UTC+00:00)

Radarsat Rocket - Pass Details

Date: 29 October 2020
Orbit: 933 x 1492 km, 100.6° (Epoch: 26 November)

Event Time Altitude Azimuth Distance (km) Brightness Sun altitude
Rises 22:45:20 0° 169° (S) 3,804 7.1 -5.1°
Reaches altitude 10° 22:47:56 10° 172° (S) 2,793 6.5 -5.6°
Maximum altitude 22:54:04 69° 256° (WSW) 1,020 4.4 -6.8°
Drops below altitude 10° 22:59:52 10° 339° (NNW) 2,649 6.4 -8.0°
Sets 23:02:16 0° 342° (NNW) 3,595 7.1 -8.5°
